Find Starlink 36370

NORAD ID: 67937 Int'l Des: 2026-037 Owner: SPXS Country: US Constellation: starlink operational
LEOCIRCULAR

現在のビュー

3D地球を読み込み中...

About Starlink 36370

Starlink 36370 (NORAD 67937) is a starlink constellation satellite (v2 mini) launched Feb 24, 2026 by SPXS of US. It operates in LEO, CIRCULAR orbit with a mass of 575.00 kg.

Starlink 36370について

説明を読み込み中...

次回通過

Passes for default location (London). Set your location on the main map for personalized predictions.

高度履歴

Loading altitude history...

軌道要素

1 67937U 26037F 26195.05221350 .00010933 00000-0 40615-3 0 9996
2 67937 43.0018 197.3329 0001010 266.2870 93.7866 15.27586464 22660
Epoch: Jul 14, 2026 • Age: 9 hours

現在のステータス

高度 486.0 km
遠地点 / 近地点 N/A
速度 7.62 km/s
衛星直下点 -16.25°S, 48.73°W
打ち上げ日 Feb 24, 2026
運用期間 0.3 years
タイプ internet

技術仕様

分類 Payload
質量 575.00 kg
乾燥質量 530.00 kg
総質量 575.00 kg
長さ 0.30 m
直径 4.10 m
スパン 29.00 m
形状 Box + pan
製造者 SPXS
バスタイプ Starlink V2MO
フェーズステータス In Orbit
所有者/国 SPXS/US

Most Searched